STARLINK-5136, 56414

Orbit data source: Space-Track

STARLINK-5136, 56414 is a payload satellite owned by SpaceX/Seattle (US) in LEO that was launched on Thu, 04 May 2023 UTC via an FALCON 9 launch vehicle from the Air Force Eastern Test Range (AFETR). Payload-class satellites include a variety of spacecraft equipped with specific instruments for various scientific and technological missions. These include communications satellites like Starlink; space stations such as the ISS; scientific satellites like the Hubble; Earth observation satellites from companies like Planet Labs, Umbra, and HawkEye 360; GPS; miniature CubeSats for education and research; and military/defense satellites.

Loading next visibility...
Identifier
56414, 2023-061AS
Orbit
LEO
Country
Flag of USUS
Related business
Manufacturer
SpaceX/Seattle
Mission
Operational Commercial Communications
Bus & Motor
STARLINK, Unknown motor
Mass
305 kg wet, ~290 kg dry
Launch date (UTC)
2023-05-04 (3 years ago)
Launch vehicle
FALCON 9
Launch site
Air Force Eastern Test Range (AFETR)
Object type
Payload
Rocket body
Debris
Shape & HBR
Box + 1 Pan, 10.1 m
Radar Cross Section
11.087 m², Large (>1 m²)

Expand to show TLE details & history
Last TLE update: 2 days ago

TLE from 2 days ago
0 STARLINK-5136
1 56414U 23061AS  26171.47633016 -.00000243  00000-0  69186-6 0  9995
2 56414  43.0049 326.6181 0001339 269.3258  90.7440 15.27573312172594
Epoch: 2026-06-20T11:25Z
TLE epoch observation values (Epoch: 2026-06-20T11:25:54.925Z)
Latitude
-0.00005°
Longitude
-113.55122°
Altitude
482.857 km
Speed
7.626 km/s
True Right ascension
21h 46m 28s
True Declination
0° 00' 00"
Sunlit
Object was in full shadow at epoch
Visualization orbit readout
Latitude
Unknown
Longitude
Unknown
Altitude
Unknown
Speed
Unknown
Apparent Right ascension
Unknown
Apparent Declination
Unknown
Sunlit
N/A
Visualization observer readout
Local Sidereal Time
21:31:50
Azimuth
Unknown
Elevation
Unknown
Doppler factor
Unknown
Orbital elements
Apogee altitude
485.932 km
Perigee altitude
484.094 km
Semi-major axis
6,863.15 km
Eccentricity
0.00013
Inclination
43.0049°
RAAN
326.6181°
Arg. of periapsis
269.3258°
True anomaly
90.75934°
Mean anomaly
90.744°
Eccentric anomaly
90.75167°
Mean motion
3.81731 °/min
Orbital period
94.31 mins
BSTAR
6.9186e-7
Loading maneuver chart data...
Computing Atmospheric mass density...
Loading historical data...
Loading historical data...
Loading historical data...
Loading historical data...
Loading historical data...
Loading historical data...
Loading historical data...

Documentation

Showing up to 5 results
|